Date String (YYYY-MM-DD hh:mm:ss) UTC,Instrument flags,Ambient pressure (hPa),Sample flow (lpm),Bypass flow (lpm),Sample temperature (°C),Ambient temperature (°C),ASC tube jacket temperature (°C),LED temperature (°C),Box temperature (°C),Sample RH (%),Span deviation,Mass concentration (μg/m³),Mass concentration (μg/m³),Mass concentration (μg/m³)
DateTimeUTC,F1_M11,P_M11,Q1_M11,Q2_M11,T1_M11,T2_M11,T3_M11,T4_M11,T5_M11,U1_M11,ZSPAN_M11,X0_M11,X2_M11,X1_M11
2021-10-10 08:00:00,,0822.8,5.01,0.00,29.1,28.1,00.0,38.3,30.8,10.4,0000.0,0002.05,0001.43,0001.14
2021-10-10 08:01:00,,0822.8,4.98,0.00,29.1,28.1,00.0,38.3,30.9,10.4,0000.0,0002.01,0001.41,0001.13
2021-10-10 08:02:00,,0822.9,4.99,0.00,29.1,28.1,00.0,38.3,30.9,10.3,0000.0,0001.94,0001.38,0001.13
2021-10-10 08:03:00,,0822.9,5.00,0.00,29.1,28.1,00.0,38.3,30.9,10.3,0000.0,0001.93,0001.38,0001.13
2021-10-10 08:04:00,,0822.9,5.00,0.00,29.1,28.2,00.0,38.3,30.9,10.3,0000.0,0001.93,0001.36,0001.13
2021-10-10 08:05:00,,0822.9,5.00,0.00,29.1,28.2,00.0,38.3,30.9,10.4,0000.0,0001.97,0001.36,0001.13
2021-10-10 08:06:00,,0823.0,5.01,0.00,29.1,28.2,00.0,38.3,30.9,10.4,0000.0,0001.95,0001.36,0001.13
2021-10-10 08:07:00,,0823.0,5.00,0.00,29.1,28.2,00.0,38.3,30.9,10.3,0000.0,0001.95,0001.37,0001.13
2021-10-10 08:08:00,,0823.0,5.00,0.00,29.1,28.2,00.0,38.3,30.9,10.3,0000.0,0001.97,0001.37,0001.13
2021-10-10 08:09:00,,0823.0,5.01,0.00,29.1,28.2,00.0,38.3,30.9,10.3,0000.0,0001.88,0001.34,0001.12
2021-10-10 08:10:00,,0823.0,5.00,0.00,29.1,28.2,00.0,38.3,30.9,10.3,0000.0,0001.77,0001.31,0001.12
2021-10-10 08:11:00,,0823.0,4.99,0.00,29.1,28.2,00.0,38.3,30.9,10.3,0000.0,0001.84,0001.34,0001.13
2021-10-10 08:12:00,,0822.9,5.00,0.00,29.1,28.2,00.0,38.3,30.9,10.3,0000.0,0001.89,0001.37,0001.14
2021-10-10 08:13:00,,0823.0,5.00,0.00,29.1,28.2,00.0,38.3,30.9,10.3,0000.0,0001.93,0001.37,0001.13
2021-10-10 08:14:00,,0822.9,5.00,0.00,29.1,28.2,00.0,38.3,30.9,10.3,0000.0,0002.00,0001.42,0001.13
2021-10-10 08:15:00,,0822.9,5.00,0.00,29.1,28.2,00.0,38.3,30.9,10.3,0000.0,0002.08,0001.45,0001.13
2021-10-10 08:16:00,,0822.9,4.99,0.00,29.1,28.2,00.0,38.3,30.9,10.3,0000.0,0002.13,0001.47,0001.13
2021-10-10 08:17:00,,0822.9,5.01,0.00,29.2,28.2,00.0,38.3,30.9,10.2,0000.0,0002.20,0001.49,0001.13
2021-10-10 08:18:00,,0823.0,4.99,0.00,29.1,28.2,00.0,38.3,30.9,10.2,0000.0,0002.20,0001.49,0001.14
2021-10-10 08:19:00,,0823.0,5.00,0.00,29.1,28.3,00.0,38.3,30.9,10.2,0000.0,0002.11,0001.46,0001.14
2021-10-10 08:20:00,,0823.1,5.01,0.00,29.1,28.3,00.0,38.3,30.9,10.3,0000.0,0002.10,0001.46,0001.14
2021-10-10 08:21:00,,0823.0,4.99,0.00,29.2,28.3,00.0,38.3,30.9,10.3,0000.0,0002.17,0001.49,0001.14
2021-10-10 08:22:00,,0823.1,5.01,0.00,29.2,28.2,00.0,38.3,31.0,10.4,0000.0,0002.21,0001.50,0001.15
2021-10-10 08:23:00,,0823.1,4.99,0.00,29.2,28.3,00.0,38.3,30.9,10.4,0000.0,0002.19,0001.50,0001.16
2021-10-10 08:24:00,,0823.1,5.00,0.00,29.2,28.3,00.0,38.3,30.9,10.4,0000.0,0002.77,0001.54,0001.18
2021-10-10 08:25:00,,0823.1,5.01,0.00,29.2,28.3,00.0,38.3,31.0,10.4,0000.0,0003.26,0001.57,0001.19
2021-10-10 08:26:00,,0823.1,5.01,0.00,29.2,28.3,00.0,38.3,31.0,10.4,0000.0,0003.43,0001.58,0001.19
2021-10-10 08:27:00,,0823.1,5.00,0.00,29.2,28.3,00.0,38.3,31.0,10.3,0000.0,0003.77,0001.63,0001.20
2021-10-10 08:28:00,,0823.2,4.99,0.00,29.2,28.3,00.0,38.3,31.0,10.3,0000.0,0004.62,0001.68,0001.21
2021-10-10 08:29:00,,0823.2,5.00,0.00,29.2,28.3,00.0,38.3,31.0,10.4,0000.0,0005.09,0001.71,0001.21
2021-10-10 08:30:00,,0823.1,5.01,0.00,29.2,28.3,00.0,38.3,31.0,10.4,0000.0,0005.36,0001.78,0001.21
2021-10-10 08:31:00,,0823.1,4.98,0.00,29.2,28.3,00.0,38.3,31.0,10.4,0000.0,0005.54,0001.81,0001.22
2021-10-10 08:32:00,,0823.2,5.01,0.00,29.2,28.3,00.0,38.3,31.0,10.4,0000.0,0005.61,0001.81,0001.22
2021-10-10 08:33:00,,0823.2,5.00,0.00,29.2,28.3,00.0,38.3,31.0,10.4,0000.0,0005.73,0001.82,0001.21
2021-10-10 08:34:00,,0823.2,5.00,0.00,29.2,28.3,00.0,38.3,31.0,10.4,0000.0,0005.80,0001.84,0001.20
2021-10-10 08:35:00,,0823.2,5.00,0.00,29.2,28.3,00.0,38.3,31.0,10.4,0000.0,0005.26,0001.84,0001.20
2021-10-10 08:36:00,,0823.2,4.99,0.00,29.2,28.3,00.0,38.3,31.0,10.4,0000.0,0005.02,0001.85,0001.20
2021-10-10 08:37:00,,0823.2,5.00,0.00,29.2,28.3,00.0,38.3,31.0,10.3,0000.0,0004.88,0001.84,0001.19
2021-10-10 08:38:00,,0823.2,5.01,0.00,29.2,28.3,00.0,38.3,31.0,10.3,0000.0,0004.56,0001.79,0001.18
2021-10-10 08:39:00,,0823.2,5.00,0.00,29.2,28.3,00.0,38.4,31.0,10.3,0000.0,0003.82,0001.76,0001.18
2021-10-10 08:40:00,,0823.2,4.99,0.00,29.2,28.3,00.0,38.4,31.0,10.4,0000.0,0003.51,0001.76,0001.19
2021-10-10 08:41:00,,0823.3,5.00,0.00,29.2,28.3,00.0,38.4,31.0,10.4,0000.0,0003.55,0001.75,0001.19
2021-10-10 08:42:00,,0823.3,4.99,0.00,29.2,28.3,00.0,38.4,31.0,10.5,0000.0,0004.26,0001.83,0001.19
2021-10-10 08:43:00,,0823.3,4.99,0.00,29.2,28.3,00.0,38.4,31.0,10.5,0000.0,0005.41,0001.88,0001.22
2021-10-10 08:44:00,,0823.2,5.00,0.00,29.2,28.3,00.0,38.4,31.0,10.5,0000.0,0005.79,0001.92,0001.24
2021-10-10 08:45:00,,0823.3,5.00,0.00,29.2,28.3,00.0,38.4,31.0,10.6,0000.0,0006.26,0002.04,0001.26
2021-10-10 08:46:00,,0823.4,5.00,0.00,29.2,28.3,00.0,38.4,31.0,10.7,0000.0,0006.88,0002.19,0001.28
2021-10-10 08:47:00,,0823.4,5.01,0.00,29.2,28.3,00.0,38.4,31.0,10.9,0000.0,0007.54,0002.29,0001.31
2021-10-10 08:48:00,,0823.4,5.00,0.00,29.2,28.3,00.0,38.4,31.0,11.0,0000.0,0008.92,0002.41,0001.35
2021-10-10 08:49:00,,0823.4,5.00,0.00,29.2,28.3,00.0,38.4,31.0,11.1,0000.0,0010.20,0002.69,0001.38
2021-10-10 08:50:00,,0823.4,4.99,0.00,29.2,28.3,00.0,38.4,31.0,11.1,0000.0,0010.86,0002.96,0001.42
2021-10-10 08:51:00,,0823.4,5.02,0.00,29.2,28.3,00.0,38.4,31.0,11.2,0000.0,0012.41,0003.18,0001.48
2021-10-10 08:52:00,,0823.3,4.99,0.00,29.2,28.3,00.0,38.4,31.0,11.2,0000.0,0013.99,0003.29,0001.52
2021-10-10 08:53:00,,0823.3,5.00,0.00,29.2,28.3,00.0,38.4,31.0,11.3,0000.0,0015.11,0003.35,0001.56
2021-10-10 08:54:00,,0823.3,5.01,0.00,29.2,28.2,00.0,38.4,31.0,11.5,0000.0,0015.25,0003.40,0001.59
2021-10-10 08:55:00,,0823.3,5.01,0.00,29.2,28.2,00.0,38.4,30.9,11.7,0000.0,0015.24,0003.41,0001.63
2021-10-10 08:56:00,,0823.3,5.00,0.00,29.2,28.2,00.0,38.4,30.9,11.8,0000.0,0015.18,0003.42,0001.68
2021-10-10 08:57:00,,0823.3,4.98,0.00,29.2,28.2,00.0,38.4,30.9,12.0,0000.0,0015.51,0003.41,0001.74
2021-10-10 08:58:00,,0823.4,4.99,0.00,29.2,28.2,00.0,38.4,30.9,11.9,0000.0,0015.20,0003.40,0001.78
2021-10-10 08:59:00,,0823.4,5.01,0.00,29.2,28.1,00.0,38.4,30.9,12.1,0000.0,0014.74,0003.42,0001.84
